Location: Houston
(29.7630°N, 95.3630°W)
Time: 04:32:37
(UTC-06:00)

Amateur Radio Satellites - All Passes

Search period start: 07 December 2016 04:02
Search period end: 08 December 2016 04:02
Location: Houston, 29.7630°N, 95.3630°W

Satellite Date Start Highest point End Downlink Frequencies (MHz)
Time Altitude Azimuth
BEESAT 3 07 Dec 04:20:42 04:24:31 61° 114° (ESE) 04:28:23 437.485
ITAMSAT 1 07 Dec 04:25:54 04:29:59 24° 291° (WNW) 04:34:05 435.822/435.867
BRITE-PL 07 Dec 04:29:55 04:34:01 21° 95° (E) 04:38:10 437.365/2234.400
PHONESAT 2.4 07 Dec 04:34:40 04:36:49 22° 21° (NNE) 04:38:58 2401.200-2431.200
HORYU 2 07 Dec 04:36:41 04:38:23 12° 94° (E) 04:40:05 437.375
MOZHAYETS 4 07 Dec 04:40:42 04:42:12 11° 267° (W) 04:43:42
CUBESAT XI-V 07 Dec 04:42:52 04:47:27 88° 78° (ENE) 04:52:03 437.345
BEESAT 2 07 Dec 04:52:11 04:56:01 60° 115° (ESE) 04:59:56 435.950
KKS-1 07 Dec 05:01:25 05:04:05 16° 265° (W) 05:06:46 437.445
STARS 07 Dec 05:02:44 05:06:42 33° 261° (W) 05:10:44 437.465
SO-50 07 Dec 05:05:28 05:09:45 43° 60° (ENE) 05:13:59 436.795
AO-7 07 Dec 05:37:15 05:43:37 25° 299° (WNW) 05:49:59 29.400- 29.500
GOMX 1 07 Dec 05:37:25 05:42:35 41° 98° (E) 05:47:39 467.674
DOVE 4 07 Dec 05:43:32 05:46:56 17° 93° (E) 05:50:15 437.250
BRITE-PL 07 Dec 06:07:17 06:12:28 42° 286° (WNW) 06:17:46 437.365/2234.400
CUTE-I 07 Dec 06:07:21 06:12:17 38° 99° (E) 06:17:11 437.470
AIST 1 07 Dec 06:07:31 06:09:19 12° 75° (ENE) 06:11:07
PHONESAT 2.4 07 Dec 06:09:38 06:12:04 34° 215° (SW) 06:14:30 2401.200-2431.200
HORYU 2 07 Dec 06:10:52 06:15:03 42° 286° (WNW) 06:19:11 437.375
RS-15 07 Dec 06:18:23 06:29:03 45° 107° (ESE) 06:40:10 29.354- 29.394
YUBILEINY 07 Dec 06:21:45 06:30:33 66° 83° (E) 06:39:17 435.215
LilacSat-2 07 Dec 06:24:43 06:28:28 73° 101° (E) 06:32:12 437.200
NOAA 15 07 Dec 06:26:02 06:31:18 69° 102° (ESE) 06:36:34 137.62
NOAA 18 07 Dec 06:26:27 06:31:29 36° 99° (E) 06:36:28 137.9125
Cubesat XI-IV 07 Dec 06:33:24 06:38:43 72° 102° (ESE) 06:44:01 437.490
Cosmos 2491 07 Dec 06:42:08 06:50:41 59° 91° (E) 06:59:13 435.465 / 435.565
Cosmos 2504 07 Dec 06:45:14 06:53:25 44° 78° (ENE) 07:01:03 435.465 / 435.565
HO-68 07 Dec 06:46:18 06:50:30 16° 94° (E) 06:54:40 435.675
SO-50 07 Dec 06:47:46 06:49:46 13° 252° (WSW) 06:51:45 436.795
CINEMA 3 07 Dec 06:53:09 06:56:36 20° 94° (E) 06:59:56 145.822/145.860
CANX-2 07 Dec 06:58:57 07:01:14 14° 95° (E) 07:03:31 2200.000
STRAND 1 07 Dec 07:10:56 07:16:05 77° 257° (WSW) 07:21:13 437.568
GOMX 1 07 Dec 07:16:18 07:20:15 21° 291° (WNW) 07:24:10 467.674
DOVE 4 07 Dec 07:19:48 07:24:43 41° 287° (WNW) 07:29:26 437.250
SEEDS 07 Dec 07:21:41 07:24:06 15° 95° (E) 07:26:30 437.485
AIST 2 07 Dec 07:29:48 07:33:51 74° 115° (ESE) 07:37:58 435.215
COMPASS 1 07 Dec 07:30:35 07:32:04 12° 94° (E) 07:33:34 437.405
AIST 1 07 Dec 07:42:56 07:47:01 38° 268° (W) 07:51:05
CUTE-I 07 Dec 07:48:13 07:52:00 20° 292° (WNW) 07:55:46 437.470
NOAA 18 07 Dec 08:07:36 08:11:51 23° 292° (WNW) 08:16:05 137.9125
NOAA 15 07 Dec 08:08:52 08:10:25 11° 295° (WNW) 08:11:59 137.62
CUTE 1.7 + AOD 2 07 Dec 08:14:41 08:18:52 68° 283° (WNW) 08:23:04 437.475
Cubesat XI-IV 07 Dec 08:16:52 08:18:06 11° 296° (WNW) 08:19:20 437.490
YUBILEINY 07 Dec 08:20:33 08:26:27 20° 277° (W) 08:32:22 435.215
ZACube-1 07 Dec 08:21:34 08:24:02 15° 95° (E) 08:26:27 437.345
FUNcube-1 07 Dec 08:28:17 08:31:00 17° 95° (E) 08:33:40 145.935
CINEMA 3 07 Dec 08:29:42 08:33:41 28° 289° (WNW) 08:37:30 145.822/145.860
RS-15 07 Dec 08:30:17 08:41:19 46° 306° (NW) 08:52:56 29.354- 29.394
HO-68 07 Dec 08:31:26 08:38:36 70° 287° (WNW) 08:45:43 435.675
AAUSAT CUBESAT 2 07 Dec 08:32:04 08:36:09 58° 100° (E) 08:40:15 437.432
CANX-2 07 Dec 08:33:20 08:37:06 32° 286° (WNW) 08:40:52 2200.000
PRISM 07 Dec 08:37:24 08:41:20 52° 75° (ENE) 08:45:18 437.425
CUBEBUG 2 07 Dec 08:38:24 08:42:44 82° 102° (ESE) 08:46:56 437.445
Cosmos 2504 07 Dec 08:39:09 08:46:21 31° 275° (W) 08:53:12 435.465 / 435.565
Cosmos 2491 07 Dec 08:41:16 08:47:53 23° 286° (WNW) 08:54:30 435.465 / 435.565
SEEDS 07 Dec 08:56:05 08:59:46 30° 286° (WNW) 09:03:28 437.485
Oscar 11 07 Dec 08:56:08 09:00:09 38° 99° (E) 09:04:10 145.826/435.025
COMPASS 1 07 Dec 09:03:50 09:07:42 38° 285° (WNW) 09:11:33 437.405
DANDE 07 Dec 09:06:24 09:08:03 12° 96° (E) 09:09:35 436.750
JUGNU 07 Dec 09:13:04 09:16:32 16° 163° (SSE) 09:20:01 437.505
UWE-3 07 Dec 09:18:15 09:22:22 50° 285° (WNW) 09:26:23 435.000/436.395/437.385
DELFI C3 07 Dec 09:19:53 09:23:04 23° 97° (E) 09:26:14 145.870
UNISAT 6 07 Dec 09:33:27 09:37:58 48° 75° (ENE) 09:42:27 437.425
HUMSAT D 07 Dec 09:37:23 09:40:12 18° 96° (E) 09:43:00 437.325/437.525
JAS-2 07 Dec 09:39:39 09:42:35 14° 67° (ENE) 09:45:22 435.910
CUSAT 1 07 Dec 09:48:14 09:51:23 32° 277° (W) 09:54:03 437.405
ZACube-1 07 Dec 09:56:41 10:00:18 29° 287° (WNW) 10:03:53 437.345
TIGRISAT 07 Dec 10:02:48 10:07:29 81° 258° (WSW) 10:12:10 435.000
FUNcube-1 07 Dec 10:03:42 10:07:11 26° 288° (WNW) 10:10:37 145.935
ANTELSAT 07 Dec 10:04:39 10:09:20 72° 259° (W) 10:14:00 437.575/2403.000
PCSat 07 Dec 10:08:11 10:12:26 24° 106° (ESE) 10:16:41 145.827
QB50P1 07 Dec 10:16:27 10:18:12 12° 68° (ENE) 10:19:57 145.935-145.965
DUCHIFAT 1 07 Dec 10:18:34 10:19:27 11° 68° (ENE) 10:20:19 145.980
Oscar 11 07 Dec 10:33:53 10:35:53 13° 291° (WNW) 10:37:54 145.826/435.025
POPSAT HIP 1 07 Dec 10:36:26 10:39:42 22° 71° (ENE) 10:42:59 437.405
DANDE 07 Dec 10:46:00 10:50:42 37° 277° (W) 10:54:20 436.750
AO-85 07 Dec 10:49:09 10:52:35 29° 58° (ENE) 10:56:00 145.980
RS-15 07 Dec 10:53:59 10:58:10 12° 334° (NNW) 11:02:25 29.354- 29.394
DELFI C3 07 Dec 10:54:54 10:57:40 18° 289° (WNW) 11:00:26 145.870
SRMSAT 07 Dec 10:56:41 10:57:54 11° 160° (SSE) 10:59:06 437.500
JUGNU 07 Dec 11:00:03 11:05:02 27° 172° (S) 11:10:02 437.505
GONETS M04 07 Dec 11:00:31 11:07:23 25° 74° (ENE) 11:14:14
BUGSAT 1 07 Dec 11:07:59 11:10:29 15° 69° (ENE) 11:13:00 437.445
ESTCUBE 1 07 Dec 11:12:18 11:16:20 32° 98° (E) 11:20:23 437.505/2401.250
HUMSAT D 07 Dec 11:12:27 11:15:43 24° 288° (WNW) 11:18:59 437.325/437.525
UNISAT 6 07 Dec 11:13:02 11:14:48 12° 266° (W) 11:16:34 437.425
AISAT 07 Dec 11:14:46 11:16:39 12° 94° (E) 11:18:31 437.250
JAS-2 07 Dec 11:20:27 11:27:12 72° 258° (WSW) 11:33:09 435.910
NANOSAT C BR1 07 Dec 11:28:55 11:33:10 84° 260° (W) 11:37:26 145.865
Cosmos 2499 07 Dec 11:33:39 11:41:42 47° 79° (E) 11:49:07 435.465 / 435.565
CUBEBUG 1 07 Dec 11:35:05 11:39:08 34° 98° (E) 11:43:09 437.445
QB50P2 07 Dec 11:36:16 11:40:28 56° 259° (W) 11:44:41 145.880/145.840
POLYITAN 1 07 Dec 11:36:44 11:40:57 60° 259° (W) 11:45:12 437.675
50 SAT 07 Dec 11:43:07 11:45:41 19° 97° (E) 11:48:15 437.505
QB50P1 07 Dec 11:49:31 11:53:33 41° 261° (W) 11:57:36 145.935-145.965
VELOX 1 07 Dec 11:49:40 11:53:40 32° 98° (E) 11:57:39 145.980
Oscar 19 07 Dec 11:50:25 11:52:14 12° 65° (ENE) 11:54:03 437.125/150
DUCHIFAT 1 07 Dec 11:50:32 11:54:38 47° 260° (W) 11:58:45 145.980
PCSat 07 Dec 11:50:43 11:55:34 34° 300° (WNW) 12:00:28 145.827
DX 1 07 Dec 11:58:46 12:02:00 20° 97° (E) 12:05:13 434.975-435.025
UKube-1 07 Dec 12:03:29 12:06:10 16° 96° (E) 12:08:49 .
SPROUT 07 Dec 12:11:55 12:15:54 38° 99° (E) 12:19:52 437.525
POPSAT HIP 1 07 Dec 12:11:56 12:15:19 23° 263° (W) 12:18:42 437.405
AO-85 07 Dec 12:30:41 12:32:38 14° 251° (WSW) 12:34:36 145.980
BUGSAT 1 07 Dec 12:41:46 12:45:31 31° 262° (W) 12:49:19 437.445
SRMSAT 07 Dec 12:41:58 12:46:30 23° 168° (SSE) 12:51:02 437.500
JUGNU 07 Dec 12:48:23 12:53:38 32° 182° (S) 12:58:51 437.505
AISAT 07 Dec 12:49:01 12:53:13 42° 286° (WNW) 12:57:25 437.250
ESTCUBE 1 07 Dec 12:49:53 12:52:51 18° 290° (WNW) 12:55:49 437.505/2401.250
GONETS M04 07 Dec 12:56:04 13:04:28 55° 269° (W) 13:12:53
CUBEBUG 1 07 Dec 13:12:25 13:15:04 16° 291° (WNW) 13:17:42 437.445
50 SAT 07 Dec 13:16:25 13:18:47 17° 288° (WNW) 13:21:10 437.505
Oscar 19 07 Dec 13:25:54 13:30:57 62° 259° (WSW) 13:36:02 437.125/150
VELOX 1 07 Dec 13:26:57 13:29:48 17° 291° (WNW) 13:32:39 145.980
Cosmos 2499 07 Dec 13:27:38 13:34:14 27° 276° (W) 13:40:30 435.465 / 435.565
TISAT 1 07 Dec 13:28:22 13:32:23 43° 100° (E) 13:36:22 437.305
Gurwin Techsat 1B 07 Dec 13:33:56 13:39:13 75° 77° (ENE) 13:44:33 435.225
DX 1 07 Dec 13:34:28 13:38:05 26° 289° (WNW) 13:41:42 434.975-435.025
UKube-1 07 Dec 13:38:22 13:42:10 31° 288° (WNW) 13:45:59 .
SPROUT 07 Dec 13:49:26 13:51:25 13° 291° (WNW) 13:53:25 437.525
ITAMSAT 1 07 Dec 13:58:33 14:02:48 26° 70° (ENE) 14:07:03 435.822/435.867
SWISSCUBE 07 Dec 14:06:07 14:09:50 22° 97° (E) 14:13:31 437.505
BEESAT 07 Dec 14:10:02 14:13:43 22° 97° (E) 14:17:21 436.000
AUBIESAT-1 07 Dec 14:16:08 14:19:21 19° 99° (E) 14:22:26 437.475
BEESAT 3 07 Dec 14:20:26 14:24:25 86° 58° (ENE) 14:28:23 437.485
M-CUBED/EXP-1 PRIME 07 Dec 14:28:57 14:33:11 36° 102° (ESE) 14:37:11 437.505
SRMSAT 07 Dec 14:30:02 14:35:12 31° 177° (S) 14:40:21 437.500
AO-7 07 Dec 14:35:33 14:43:24 49° 67° (ENE) 14:51:17 29.400- 29.500
JUGNU 07 Dec 14:37:29 14:42:12 24° 191° (SSW) 14:46:52 437.505
ITUPSAT 1 07 Dec 14:38:00 14:42:34 45° 100° (E) 14:47:07 437.325
ISS 07 Dec 14:47:38 14:50:49 51° 131° (SE) 14:54:01 145.825
BEESAT 2 07 Dec 14:52:57 14:56:59 87° 66° (ENE) 15:00:59 435.950
MOZHAYETS 4 07 Dec 15:02:26 15:05:32 18° 95° (E) 15:08:37
TISAT 1 07 Dec 15:06:19 15:07:34 11° 292° (WNW) 15:08:48 437.305
KKS-1 07 Dec 15:23:13 15:23:57 10° 94° (E) 15:24:39 437.445
RS-15 07 Dec 15:27:42 15:38:20 32° 48° (NE) 15:48:35 29.354- 29.394
O/OREOS (USA 219) 07 Dec 15:32:55 15:37:28 74° 107° (ESE) 15:42:01 437.305
ITAMSAT 1 07 Dec 15:37:37 15:42:05 29° 262° (W) 15:46:34 435.822/435.867
SWISSCUBE 07 Dec 15:43:33 15:47:31 27° 289° (WNW) 15:51:28 437.505
BEESAT 07 Dec 15:47:23 15:51:23 27° 289° (WNW) 15:55:22 436.000
AUBIESAT-1 07 Dec 15:49:49 15:53:41 29° 293° (WNW) 15:57:24 437.475
M-CUBED/EXP-1 PRIME 07 Dec 16:04:16 16:07:14 17° 296° (WNW) 16:10:07 437.505
ITUPSAT 1 07 Dec 16:17:34 16:19:57 14° 293° (WNW) 16:22:19 437.325
SRMSAT 07 Dec 16:18:56 16:23:55 28° 187° (S) 16:28:55 437.500
ISS 07 Dec 16:26:03 16:27:31 12° 325° (NW) 16:28:59 145.825
JUGNU 07 Dec 16:28:26 16:30:38 12° 200° (SSW) 16:32:50 437.505
AO-7 07 Dec 16:29:19 16:36:13 29° 261° (W) 16:43:12 29.400- 29.500
MOZHAYETS 4 07 Dec 16:38:41 16:42:39 30° 287° (WNW) 16:46:38
GOMX 1 07 Dec 16:40:31 16:43:48 20° 69° (ENE) 16:47:14 467.674
CUBESAT XI-V 07 Dec 16:45:33 16:49:49 35° 98° (E) 16:54:05 437.345
KKS-1 07 Dec 16:56:21 17:00:41 49° 286° (WNW) 17:04:58 437.445
STARS 07 Dec 16:57:31 17:01:55 70° 102° (ESE) 17:06:16 437.465
Cosmos 2491 07 Dec 17:01:35 17:07:43 21° 73° (ENE) 17:13:49 435.465 / 435.565
LilacSat-2 07 Dec 17:01:59 17:04:15 15° 71° (ENE) 17:06:32 437.200
HORYU 2 07 Dec 17:02:11 17:06:40 81° 78° (ENE) 17:11:10 437.375
BRITE-PL 07 Dec 17:12:25 17:16:34 60° 260° (W) 17:21:00 437.365/2234.400
CUTE-I 07 Dec 17:23:15 17:28:05 35° 72° (ENE) 17:32:55 437.470
YUBILEINY 07 Dec 17:24:45 17:27:52 12° 80° (E) 17:31:00 435.215
AIST 2 07 Dec 17:34:50 17:39:02 69° 246° (WSW) 17:43:12 435.215
RS-15 07 Dec 17:39:32 17:51:41 69° 248° (WSW) 18:03:19 29.354- 29.394
NOAA 15 07 Dec 17:40:05 17:45:13 59° 74° (ENE) 17:50:22 137.62
NOAA 18 07 Dec 17:46:42 17:51:46 38° 71° (ENE) 17:56:51 137.9125
Cubesat XI-IV 07 Dec 17:49:12 17:54:31 65° 75° (ENE) 17:59:51 437.490
CINEMA 3 07 Dec 17:50:40 17:51:53 11° 66° (ENE) 17:53:07 145.822/145.860
SRMSAT 07 Dec 18:08:51 18:12:35 17° 196° (SSW) 18:16:17 437.500
GOMX 1 07 Dec 18:17:44 18:21:37 29° 264° (W) 18:25:44 467.674
DOVE 4 07 Dec 18:18:11 18:22:52 80° 259° (W) 18:27:54 437.250
CUBESAT XI-V 07 Dec 18:23:52 18:26:52 17° 290° (WNW) 18:29:53 437.345
LilacSat-2 07 Dec 18:35:04 18:38:17 25° 263° (W) 18:41:31 437.200
HO-68 07 Dec 18:53:09 18:59:56 48° 70° (ENE) 19:06:45 435.675
Cosmos 2491 07 Dec 18:56:29 19:05:03 65° 268° (W) 19:13:37 435.465 / 435.565
CUTE 1.7 + AOD 2 07 Dec 19:01:17 19:05:09 36° 74° (ENE) 19:09:01 437.475
CUTE-I 07 Dec 19:04:04 19:08:06 22° 264° (W) 19:12:09 437.470
SO-50 07 Dec 19:13:13 19:17:56 61° 114° (ESE) 19:22:37 436.795
YUBILEINY 07 Dec 19:14:38 19:23:20 90° 107° (ESE) 19:32:07 435.215
Cosmos 2504 07 Dec 19:15:01 19:22:36 42° 88° (E) 19:30:36 435.465 / 435.565
AAUSAT CUBESAT 2 07 Dec 19:17:23 19:20:04 17° 71° (ENE) 19:22:46 437.432
CANX-2 07 Dec 19:19:18 19:23:30 77° 78° (ENE) 19:27:42 2200.000
NOAA 15 07 Dec 19:23:28 19:25:16 12° 266° (W) 19:27:03 137.62
CINEMA 3 07 Dec 19:23:30 19:28:20 65° 260° (W) 19:33:19 145.822/145.860
STRAND 1 07 Dec 19:27:36 19:32:39 61° 101° (E) 19:37:39 437.568
NOAA 18 07 Dec 19:28:21 19:32:26 21° 264° (W) 19:36:33 137.9125
CUBEBUG 2 07 Dec 19:29:58 19:34:13 33° 73° (ENE) 19:38:27 437.445
Cubesat XI-IV 07 Dec 19:33:26 19:34:53 11° 267° (W) 19:36:21 437.490
SEEDS 07 Dec 19:40:56 19:45:05 79° 79° (E) 19:49:15 437.485
Oscar 11 07 Dec 19:46:25 19:48:47 15° 69° (ENE) 19:51:08 145.826/435.025
COMPASS 1 07 Dec 19:47:57 19:52:00 59° 76° (ENE) 19:56:03 437.405
AIST 1 07 Dec 20:05:29 20:09:37 49° 278° (W) 20:13:50
UWE-3 07 Dec 20:08:12 20:12:47 58° 76° (ENE) 20:17:19 435.000/436.395/437.385
CUSAT 1 07 Dec 20:22:59 20:27:11 61° 83° (E) 20:32:43 437.405
PRISM 07 Dec 20:26:44 20:28:18 12° 95° (E) 20:29:52 437.425
CUTE 1.7 + AOD 2 07 Dec 20:39:14 20:41:03 12° 266° (W) 20:42:52 437.475
HO-68 07 Dec 20:42:09 20:47:45 25° 263° (W) 20:53:23 435.675
PCSat 07 Dec 20:43:59 20:49:17 53° 63° (ENE) 20:54:34 145.827
ZACube-1 07 Dec 20:45:05 20:49:40 86° 258° (WSW) 20:54:12 437.345
FUNcube-1 07 Dec 20:51:43 20:56:16 79° 257° (WSW) 21:00:47 145.935
AAUSAT CUBESAT 2 07 Dec 20:51:52 20:55:17 26° 263° (W) 20:58:44 437.432
SO-50 07 Dec 20:56:34 20:58:43 13° 309° (NW) 21:00:53 436.795
CUBEBUG 2 07 Dec 21:07:32 21:10:47 18° 265° (W) 21:14:03 437.445
Cosmos 2504 07 Dec 21:08:44 21:15:57 33° 284° (WNW) 21:23:37 435.465 / 435.565
STRAND 1 07 Dec 21:09:24 21:11:14 12° 294° (WNW) 21:13:04 437.568
YUBILEINY 07 Dec 21:17:16 21:21:08 13° 291° (WNW) 21:25:01 435.215
Oscar 11 07 Dec 21:20:37 21:24:33 34° 262° (W) 21:28:30 145.826/435.025
DANDE 07 Dec 21:27:52 21:31:04 76° 83° (E) 21:35:13 436.750
UNISAT 6 07 Dec 21:32:46 21:35:17 15° 95° (E) 21:37:46 437.425
DELFI C3 07 Dec 21:33:10 21:37:04 76° 259° (W) 21:40:59 145.870
HUMSAT D 07 Dec 21:56:24 22:00:38 82° 260° (W) 22:04:50 437.325/437.525
PRISM 07 Dec 21:59:48 22:03:39 38° 286° (WNW) 22:07:31 437.425
TIGRISAT 07 Dec 22:00:58 22:04:50 32° 98° (E) 22:08:38 435.000
ANTELSAT 07 Dec 22:02:51 22:06:50 36° 98° (E) 22:10:46 437.575/2403.000
ESTCUBE 1 07 Dec 22:07:21 22:09:49 15° 69° (ENE) 22:12:16 437.505/2401.250
PHONESAT 2.4 07 Dec 22:22:49 22:25:21 40° 146° (SE) 22:27:53 2401.200-2431.200
CUBEBUG 1 07 Dec 22:26:41 22:28:55 14° 68° (ENE) 22:31:09 437.445
PCSat 07 Dec 22:29:19 22:32:09 14° 256° (WSW) 22:34:59 145.827
JAS-2 07 Dec 22:37:22 22:40:40 16° 97° (E) 22:44:06 435.910
VELOX 1 07 Dec 22:42:32 22:44:50 14° 68° (ENE) 22:47:09 145.980
ISS 07 Dec 22:56:30 22:59:39 41° 43° (NE) 23:02:47 145.825
SPROUT 07 Dec 23:00:53 23:03:10 14° 69° (ENE) 23:05:26 437.525
UNISAT 6 07 Dec 23:08:11 23:12:01 31° 287° (WNW) 23:15:48 437.425
NANOSAT C BR1 07 Dec 23:19:51 23:23:17 24° 97° (E) 23:26:40 145.865
QB50P2 07 Dec 23:27:17 23:31:11 35° 99° (E) 23:35:02 145.880/145.840
POLYITAN 1 07 Dec 23:27:49 23:31:39 33° 99° (E) 23:35:25 437.675
TIGRISAT 07 Dec 23:38:38 23:41:12 15° 291° (WNW) 23:43:43 435.000
AISAT 07 Dec 23:39:41 23:44:05 78° 76° (ENE) 23:48:31 437.250
QB50P1 07 Dec 23:39:58 23:44:04 48° 100° (E) 23:48:07 145.935-145.965
DUCHIFAT 1 07 Dec 23:40:32 23:44:30 40° 99° (E) 23:48:25 145.980
ANTELSAT 07 Dec 23:40:59 23:43:10 14° 292° (WNW) 23:45:20 437.575/2403.000
ESTCUBE 1 07 Dec 23:42:06 23:46:14 37° 261° (W) 23:50:24 437.505/2401.250
50 SAT 07 Dec 23:44:29 23:47:57 68° 77° (ENE) 23:51:27 437.505
GONETS M04 07 Dec 23:53:37 00:01:16 36° 87° (E) 00:08:54
PHONESAT 2.4 07 Dec 23:58:32 00:00:38 20° 339° (NNW) 00:02:44 2401.200-2431.200
CUBEBUG 1 08 Dec 00:00:46 00:04:48 37° 261° (W) 00:08:52 437.445
Cosmos 2499 08 Dec 00:01:09 00:09:02 46° 89° (E) 00:17:18 435.465 / 435.565
POPSAT HIP 1 08 Dec 00:01:35 00:05:49 88° 282° (WNW) 00:10:01 437.405
TISAT 1 08 Dec 00:15:15 00:17:45 15° 69° (ENE) 00:20:15 437.305
VELOX 1 08 Dec 00:16:49 00:20:53 38° 261° (W) 00:25:01 145.980
JAS-2 08 Dec 00:20:52 00:25:49 43° 286° (WNW) 00:31:09 435.910
DX 1 08 Dec 00:22:59 00:27:17 65° 259° (W) 00:31:37 434.975-435.025
UKube-1 08 Dec 00:26:01 00:30:19 84° 258° (WSW) 00:34:39 .
BUGSAT 1 08 Dec 00:29:04 00:33:10 56° 101° (E) 00:37:11 437.445
ISS 08 Dec 00:34:44 00:35:49 11° 235° (SW) 00:36:54 145.825
SPROUT 08 Dec 00:34:47 00:38:43 35° 261° (W) 00:42:41 437.525
NANOSAT C BR1 08 Dec 00:55:45 00:58:47 20° 289° (WNW) 01:01:48 145.865
AO-85 08 Dec 00:56:21 01:01:16 50° 114° (ESE) 01:05:52 145.980
QB50P2 08 Dec 01:04:30 01:06:37 14° 291° (WNW) 01:08:42 145.880/145.840
POLYITAN 1 08 Dec 01:04:50 01:07:06 14° 291° (WNW) 01:09:21 437.675
SWISSCUBE 08 Dec 01:08:04 01:10:28 14° 67° (ENE) 01:12:52 437.505
M-CUBED/EXP-1 PRIME 08 Dec 01:10:06 01:12:45 17° 64° (ENE) 01:15:31 437.505
BEESAT 08 Dec 01:11:59 01:14:17 14° 67° (ENE) 01:16:36 436.000
DUCHIFAT 1 08 Dec 01:18:11 01:19:45 12° 292° (WNW) 01:21:18 145.980
QB50P1 08 Dec 01:19:01 01:19:20 10° 293° (WNW) 01:19:39 145.935-145.965
ITUPSAT 1 08 Dec 01:39:10 01:43:10 27° 71° (ENE) 01:47:10 437.325
Oscar 19 08 Dec 01:43:24 01:48:36 78° 102° (ESE) 01:53:48 437.125/150
O/OREOS (USA 219) 08 Dec 01:49:04 01:53:25 50° 70° (ENE) 01:57:45 437.305
TISAT 1 08 Dec 01:49:17 01:53:03 32° 261° (W) 01:56:52 437.305
GONETS M04 08 Dec 01:49:53 01:57:50 39° 282° (WNW) 02:05:48
Cosmos 2499 08 Dec 01:54:54 02:02:13 32° 285° (WNW) 02:09:51 435.465 / 435.565
Gurwin Techsat 1B 08 Dec 01:56:26 02:01:34 49° 100° (E) 02:06:41 435.225
ITAMSAT 1 08 Dec 02:18:28 02:21:13 14° 95° (E) 02:23:58 435.822/435.867
AUBIESAT-1 08 Dec 02:28:39 02:32:38 61° 255° (WSW) 02:36:56 437.475
AO-85 08 Dec 02:38:55 02:41:50 16° 306° (NW) 02:44:41 145.980
SWISSCUBE 08 Dec 02:43:14 02:47:48 46° 260° (W) 02:52:23 437.505
M-CUBED/EXP-1 PRIME 08 Dec 02:43:20 02:46:53 30° 259° (W) 02:50:41 437.505
AO-7 08 Dec 02:45:05 02:51:17 23° 97° (E) 02:57:27 29.400- 29.500
BEESAT 08 Dec 02:47:01 02:51:36 47° 260° (W) 02:56:12 436.000
PHONESAT 2.4 08 Dec 03:11:29 03:12:31 12° 12° (NNE) 03:13:33 2401.200-2431.200
ITUPSAT 1 08 Dec 03:17:09 03:20:53 23° 263° (W) 03:24:37 437.325
MOZHAYETS 4 08 Dec 03:33:39 03:38:13 67° 259° (W) 03:42:47
Gurwin Techsat 1B 08 Dec 03:37:56 03:41:03 16° 293° (WNW) 03:44:09 435.225
CUBESAT XI-V 08 Dec 03:44:00 03:46:59 17° 70° (ENE) 03:49:59 437.345
KKS-1 08 Dec 03:47:52 03:52:18 69° 75° (ENE) 03:56:45 437.445
STARS 08 Dec 03:48:23 03:52:10 28° 72° (ENE) 03:55:57 437.465
SO-50 08 Dec 03:52:58 03:54:17 11° 50° (NE) 03:55:36 436.795
